Time,TemperatureF,DewpointF,PressureIn,WindDirection,WindDirectionDegrees,WindSpeedMPH,WindSpeedGustMPH,Humidity,HourlyPrecipIn,Conditions,Clouds,dailyrainin,SoftwareType,DateUTC
2016-02-06 00:01:00,26.8,14.2,29.47,WSW,247,5.4,5.4,59,0.00,,---,0.00,VWS V14.01,2016-02-06 06:01:00,
2016-02-06 00:06:00,26.8,14.2,29.47,West,275,2.7,2.7,59,0.00,,---,0.00,VWS V14.01,2016-02-06 06:06:00,
2016-02-06 00:11:00,26.8,14.2,29.47,SW,222,3.6,4.9,59,0.00,,---,0.00,VWS V14.01,2016-02-06 06:11:00,
2016-02-06 00:16:00,26.8,14.2,29.47,WSW,252,0.0,0.0,59,0.00,,---,0.00,VWS V14.01,2016-02-06 06:16:00,
2016-02-06 00:21:00,26.6,14.1,29.47,WSW,258,2.2,2.2,59,0.00,,---,0.00,VWS V14.01,2016-02-06 06:21:00,
2016-02-06 00:26:00,26.6,14.1,29.47,WSW,258,0.0,2.2,59,0.00,,---,0.00,VWS V14.01,2016-02-06 06:26:00,
2016-02-06 00:31:00,26.6,14.1,29.47,SSW,195,0.0,2.7,59,0.00,,---,0.00,VWS V14.01,2016-02-06 06:31:00,
2016-02-06 00:36:00,26.8,14.2,29.47,West,271,0.0,0.0,59,0.00,,---,0.00,VWS V14.01,2016-02-06 06:36:00,
2016-02-06 00:41:00,26.8,14.2,29.47,WSW,252,0.0,0.0,59,0.00,,---,0.00,VWS V14.01,2016-02-06 06:41:00,
2016-02-06 00:46:00,27.0,14.4,29.47,West,260,0.0,0.0,59,0.00,,---,0.00,VWS V14.01,2016-02-06 06:46:00,
2016-02-06 00:51:00,27.0,14.4,29.47,NW,318,0.0,0.0,59,0.00,,---,0.00,VWS V14.01,2016-02-06 06:51:00,
2016-02-06 00:56:00,27.0,14.4,29.47,WNW,298,0.0,0.0,59,0.00,,---,0.00,VWS V14.01,2016-02-06 06:56:00,
2016-02-06 01:01:00,27.0,14.4,29.47,NW,308,2.2,2.2,59,0.00,,---,0.00,VWS V14.01,2016-02-06 07:01:00,
2016-02-06 01:06:00,27.0,14.4,29.47,NW,319,0.0,0.0,59,0.00,,---,0.00,VWS V14.01,2016-02-06 07:06:00,
2016-02-06 01:11:00,26.8,14.2,29.47,NE,56,2.7,2.7,59,0.00,,---,0.00,VWS V14.01,2016-02-06 07:11:00,
2016-02-06 01:16:00,26.6,14.1,29.47,NE,56,0.0,0.0,59,0.00,,---,0.00,VWS V14.01,2016-02-06 07:16:00,
2016-02-06 01:21:00,26.8,14.2,29.47,NE,56,0.0,2.2,59,0.00,,---,0.00,VWS V14.01,2016-02-06 07:21:00,
2016-02-06 01:26:00,27.0,14.4,29.47,NE,56,0.0,0.0,59,0.00,,---,0.00,VWS V14.01,2016-02-06 07:26:00,
2016-02-06 01:31:00,27.0,14.4,29.44,NNW,341,3.6,3.6,59,0.00,,---,0.00,VWS V14.01,2016-02-06 07:31:00,
2016-02-06 01:36:00,27.0,14.4,29.44,NNW,342,5.4,5.4,59,0.00,,---,0.00,VWS V14.01,2016-02-06 07:36:00,
2016-02-06 01:41:00,27.1,14.6,29.44,NNW,330,0.0,0.0,59,0.00,,---,0.00,VWS V14.01,2016-02-06 07:41:00,
2016-02-06 01:46:00,27.1,14.6,29.47,NNW,329,2.2,3.6,59,0.00,,---,0.00,VWS V14.01,2016-02-06 07:46:00,
2016-02-06 01:51:00,27.1,14.6,29.47,WNW,287,0.0,0.0,59,0.00,,---,0.00,VWS V14.01,2016-02-06 07:51:00,
2016-02-06 01:56:00,27.1,14.6,29.47,WNW,288,0.0,0.0,59,0.00,,---,0.00,VWS V14.01,2016-02-06 07:56:00,
2016-02-06 02:01:00,27.1,14.6,29.44,WNW,288,0.0,0.0,59,0.00,,---,0.00,VWS V14.01,2016-02-06 08:01:00,
2016-02-06 02:06:00,27.1,14.6,29.44,NW,317,0.0,0.0,59,0.00,,---,0.00,VWS V14.01,2016-02-06 08:06:00,
2016-02-06 02:11:00,27.1,14.6,29.44,NW,315,0.0,0.0,59,0.00,,---,0.00,VWS V14.01,2016-02-06 08:11:00,
2016-02-06 02:16:00,27.1,14.6,29.44,West,280,2.7,2.7,59,0.00,,---,0.00,VWS V14.01,2016-02-06 08:16:00,
2016-02-06 02:21:00,27.1,14.6,29.44,West,278,0.0,2.7,59,0.00,,---,0.00,VWS V14.01,2016-02-06 08:21:00,
2016-02-06 02:26:00,27.1,14.6,29.44,West,278,0.0,2.2,59,0.00,,---,0.00,VWS V14.01,2016-02-06 08:26:00,
2016-02-06 02:31:00,27.1,15.8,29.44,West,278,0.0,0.0,62,0.00,,---,0.00,VWS V14.01,2016-02-06 08:31:00,
2016-02-06 02:36:00,27.3,16.0,29.44,NW,305,0.0,0.0,62,0.00,,---,0.00,VWS V14.01,2016-02-06 08:36:00,
2016-02-06 02:41:00,27.1,15.8,29.44,NW,324,2.7,4.0,62,0.00,,---,0.00,VWS V14.01,2016-02-06 08:41:00,
2016-02-06 02:46:00,27.1,15.8,29.44,NW,324,2.2,2.2,62,0.00,,---,0.00,VWS V14.01,2016-02-06 08:46:00,
2016-02-06 02:51:00,27.1,15.8,29.44,NW,324,2.2,2.2,62,0.00,,---,0.00,VWS V14.01,2016-02-06 08:51:00,
2016-02-06 02:56:00,27.1,15.8,29.44,West,275,0.0,0.0,62,0.00,,---,0.00,VWS V14.01,2016-02-06 08:56:00,
2016-02-06 03:01:00,27.3,16.0,29.44,SW,230,0.0,0.0,62,0.00,,---,0.00,VWS V14.01,2016-02-06 09:01:00,
2016-02-06 03:06:00,27.3,16.0,29.44,NNW,337,3.1,3.6,62,0.00,,---,0.00,VWS V14.01,2016-02-06 09:06:00,
2016-02-06 03:11:00,27.3,16.0,29.44,WNW,295,0.0,2.2,62,0.00,,---,0.00,VWS V14.01,2016-02-06 09:11:00,
2016-02-06 03:16:00,27.3,16.0,29.44,NW,320,0.0,2.2,62,0.00,,---,0.00,VWS V14.01,2016-02-06 09:16:00,
2016-02-06 03:21:00,27.3,16.0,29.44,WNW,292,0.0,0.0,62,0.00,,---,0.00,VWS V14.01,2016-02-06 09:21:00,
2016-02-06 03:26:00,27.3,16.0,29.44,NNW,332,0.0,2.2,62,0.00,,---,0.00,VWS V14.01,2016-02-06 09:26:00,
2016-02-06 03:31:00,27.1,15.8,29.44,West,267,0.0,3.1,62,0.00,,---,0.00,VWS V14.01,2016-02-06 09:31:00,
2016-02-06 03:36:00,27.1,15.8,29.44,West,267,0.0,0.0,62,0.00,,---,0.00,VWS V14.01,2016-02-06 09:36:00,
2016-02-06 03:41:00,27.0,15.6,29.44,West,267,0.0,0.0,62,0.00,,---,0.00,VWS V14.01,2016-02-06 09:41:00,
2016-02-06 03:46:00,26.8,15.4,29.44,NNW,338,0.0,0.0,62,0.00,,---,0.00,VWS V14.01,2016-02-06 09:46:00,
2016-02-06 03:51:00,26.8,15.4,29.44,NW,321,0.0,0.0,62,0.00,,---,0.00,VWS V14.01,2016-02-06 09:51:00,
2016-02-06 03:56:00,26.8,15.4,29.44,NW,321,0.0,0.0,62,0.00,,---,0.00,VWS V14.01,2016-02-06 09:56:00,
2016-02-06 04:01:00,26.8,15.4,29.44,NW,321,0.0,0.0,62,0.00,,---,0.00,VWS V14.01,2016-02-06 10:01:00,
2016-02-06 04:06:00,26.8,15.4,29.44,NW,321,0.0,0.0,62,0.00,,---,0.00,VWS V14.01,2016-02-06 10:06:00,
2016-02-06 04:11:00,26.8,15.4,29.44,SW,226,2.7,3.1,62,0.00,,---,0.00,VWS V14.01,2016-02-06 10:11:00,
2016-02-06 04:16:00,26.8,15.4,29.44,West,279,0.0,0.0,62,0.00,,---,0.00,VWS V14.01,2016-02-06 10:16:00,
2016-02-06 04:21:00,26.6,15.9,29.44,NW,304,0.0,0.0,63,0.00,,---,0.00,VWS V14.01,2016-02-06 10:21:00,
2016-02-06 04:26:00,26.8,15.4,29.44,NW,312,0.0,0.0,62,0.00,,---,0.00,VWS V14.01,2016-02-06 10:26:00,
2016-02-06 04:31:00,26.6,15.9,29.44,WSW,250,0.0,2.2,63,0.00,,---,0.00,VWS V14.01,2016-02-06 10:31:00,
2016-02-06 04:36:00,26.2,15.5,29.44,SW,232,0.0,2.2,63,0.00,,---,0.00,VWS V14.01,2016-02-06 10:36:00,
2016-02-06 04:41:00,26.1,15.4,29.44,SW,232,0.0,0.0,63,0.00,,---,0.00,VWS V14.01,2016-02-06 10:41:00,
2016-02-06 04:46:00,25.7,15.0,29.41,SW,235,2.7,2.7,63,0.00,,---,0.00,VWS V14.01,2016-02-06 10:46:00,
2016-02-06 04:56:00,25.2,14.5,29.41,WSW,249,0.0,4.5,63,0.00,,---,0.00,VWS V14.01,2016-02-06 10:56:00,
2016-02-06 05:01:00,25.2,14.5,29.41,West,262,0.0,0.0,63,0.00,,---,0.00,VWS V14.01,2016-02-06 11:01:00,
2016-02-06 05:06:00,25.2,14.5,29.41,West,262,0.0,0.0,63,0.00,,---,0.00,VWS V14.01,2016-02-06 11:06:00,
2016-02-06 05:11:00,25.2,14.5,29.41,West,269,3.1,3.1,63,0.00,,---,0.00,VWS V14.01,2016-02-06 11:11:00,
2016-02-06 05:16:00,25.2,14.5,29.41,SW,227,0.0,3.6,63,0.00,,---,0.00,VWS V14.01,2016-02-06 11:16:00,
2016-02-06 05:21:00,25.0,14.3,29.41,WNW,289,2.2,2.2,63,0.00,,---,0.00,VWS V14.01,2016-02-06 11:21:00,
2016-02-06 05:26:00,24.8,14.1,29.41,WNW,282,0.0,0.0,63,0.00,,---,0.00,VWS V14.01,2016-02-06 11:26:00,
2016-02-06 05:31:00,24.6,14.0,29.41,WSW,242,0.0,0.0,63,0.00,,---,0.00,VWS V14.01,2016-02-06 11:31:00,
2016-02-06 05:36:00,24.4,13.8,29.41,WSW,246,0.0,0.0,63,0.00,,---,0.00,VWS V14.01,2016-02-06 11:36:00,
2016-02-06 05:41:00,24.3,13.6,29.41,WSW,246,0.0,0.0,63,0.00,,---,0.00,VWS V14.01,2016-02-06 11:41:00,
2016-02-06 05:46:00,24.3,13.6,29.41,WSW,246,0.0,0.0,63,0.00,,---,0.00,VWS V14.01,2016-02-06 11:46:00,
2016-02-06 05:51:00,24.4,13.8,29.41,WSW,246,0.0,2.2,63,0.00,,---,0.00,VWS V14.01,2016-02-06 11:51:00,
2016-02-06 05:56:00,24.8,14.1,29.41,WSW,246,0.0,0.0,63,0.00,,---,0.00,VWS V14.01,2016-02-06 11:56:00,
2016-02-06 06:01:00,24.8,14.1,29.41,WSW,246,0.0,0.0,63,0.00,,---,0.00,VWS V14.01,2016-02-06 12:01:00,
2016-02-06 06:06:00,25.0,14.3,29.41,WSW,244,0.0,0.0,63,0.00,,---,0.00,VWS V14.01,2016-02-06 12:06:00,
2016-02-06 06:11:00,25.2,14.5,29.41,WSW,244,0.0,0.0,63,0.00,,---,0.00,VWS V14.01,2016-02-06 12:11:00,
2016-02-06 06:16:00,25.3,14.7,29.41,WSW,254,0.0,0.0,63,0.00,,---,0.00,VWS V14.01,2016-02-06 12:16:00,
2016-02-06 06:21:00,25.3,14.7,29.41,West,273,2.2,2.7,63,0.00,,---,0.00,VWS V14.01,2016-02-06 12:21:00,
2016-02-06 06:26:00,25.7,15.0,29.41,West,275,3.1,3.1,63,0.00,,---,0.00,VWS V14.01,2016-02-06 12:26:00,
2016-02-06 06:31:00,25.9,15.2,29.41,NW,324,2.7,3.6,63,0.00,,---,0.00,VWS V14.01,2016-02-06 12:31:00,
2016-02-06 06:36:00,26.1,15.4,29.41,NW,305,0.0,0.0,63,0.00,,---,0.00,VWS V14.01,2016-02-06 12:36:00,
2016-02-06 06:41:00,26.1,15.4,29.41,NW,311,0.0,2.7,63,0.00,,---,0.00,VWS V14.01,2016-02-06 12:41:00,
2016-02-06 06:46:00,26.2,15.5,29.41,NW,308,2.2,2.2,63,0.00,,---,0.00,VWS V14.01,2016-02-06 12:46:00,
2016-02-06 06:51:00,26.2,15.5,29.41,NW,317,0.0,0.0,63,0.00,,---,0.00,VWS V14.01,2016-02-06 12:51:00,
2016-02-06 06:56:00,26.4,15.7,29.41,NW,320,0.0,0.0,63,0.00,,---,0.00,VWS V14.01,2016-02-06 12:56:00,
2016-02-06 07:01:00,26.4,15.7,29.41,NNW,328,0.0,3.1,63,0.00,,---,0.00,VWS V14.01,2016-02-06 13:01:00,
2016-02-06 07:06:00,26.6,15.9,29.41,WNW,284,2.7,3.1,63,0.00,,---,0.00,VWS V14.01,2016-02-06 13:06:00,
2016-02-06 07:16:00,26.8,15.4,29.41,NW,322,3.1,3.1,62,0.00,,---,0.00,VWS V14.01,2016-02-06 13:16:00,
2016-02-06 07:21:00,26.8,15.4,29.41,NNW,338,0.0,0.0,62,0.00,,---,0.00,VWS V14.01,2016-02-06 13:21:00,
2016-02-06 07:26:00,27.0,15.6,29.41,NNW,330,2.2,2.7,62,0.00,,---,0.00,VWS V14.01,2016-02-06 13:26:00,
2016-02-06 07:31:00,27.0,15.6,29.44,NNW,330,0.0,2.7,62,0.00,,---,0.00,VWS V14.01,2016-02-06 13:31:00,
2016-02-06 07:36:00,27.1,15.8,29.44,NW,324,0.0,3.1,62,0.00,,---,0.00,VWS V14.01,2016-02-06 13:36:00,
2016-02-06 07:41:00,27.1,15.8,29.44,NNW,331,0.0,0.0,62,0.00,,---,0.00,VWS V14.01,2016-02-06 13:41:00,
2016-02-06 07:51:00,27.5,16.1,29.44,NNW,331,2.2,2.7,62,0.00,,---,0.00,VWS V14.01,2016-02-06 13:51:00,
2016-02-06 07:56:00,27.9,16.5,29.44,NNW,331,2.7,2.7,62,0.00,,---,0.00,VWS V14.01,2016-02-06 13:56:00,
2016-02-06 08:01:00,28.0,16.6,29.44,NNW,331,2.2,4.0,62,0.00,,---,0.00,VWS V14.01,2016-02-06 14:01:00,
2016-02-06 08:06:00,28.2,16.8,29.44,NNW,331,2.7,3.1,62,0.00,,---,0.00,VWS V14.01,2016-02-06 14:06:00,
2016-02-06 08:11:00,28.6,17.1,29.44,NNW,331,4.0,4.0,62,0.00,,---,0.00,VWS V14.01,2016-02-06 14:11:00,
2016-02-06 08:16:00,28.9,17.5,29.44,SW,232,3.1,3.6,62,0.00,,---,0.00,VWS V14.01,2016-02-06 14:16:00,
2016-02-06 08:21:00,29.1,17.7,29.44,NW,320,3.1,3.1,62,0.00,,---,0.00,VWS V14.01,2016-02-06 14:21:00,
2016-02-06 08:26:00,29.1,17.7,29.44,NNW,340,2.7,3.6,62,0.00,,---,0.00,VWS V14.01,2016-02-06 14:26:00,
2016-02-06 08:31:00,29.3,17.8,29.41,NNW,335,2.7,3.6,62,0.00,,---,0.00,VWS V14.01,2016-02-06 14:31:00,
2016-02-06 08:36:00,29.5,18.0,29.41,NNW,327,2.7,3.6,62,0.00,,---,0.00,VWS V14.01,2016-02-06 14:36:00,
2016-02-06 08:41:00,29.7,18.2,29.41,NW,324,0.0,2.2,62,0.00,,---,0.00,VWS V14.01,2016-02-06 14:41:00,
2016-02-06 08:45:00,29.8,18.4,29.41,WNW,282,0.0,2.2,62,0.00,,---,0.00,VWS V14.01,2016-02-06 14:45:00,
2016-02-06 08:50:00,29.8,18.4,29.41,NW,321,3.6,3.6,62,0.00,,---,0.00,VWS V14.01,2016-02-06 14:50:00,
2016-02-06 08:55:00,29.8,18.4,29.41,NW,320,0.0,2.7,62,0.00,,---,0.00,VWS V14.01,2016-02-06 14:55:00,
2016-02-06 09:00:00,30.0,18.5,29.41,NW,316,4.0,4.0,62,0.00,,---,0.00,VWS V14.01,2016-02-06 15:00:00,
2016-02-06 09:05:00,30.0,18.5,29.41,NNW,334,3.1,3.1,62,0.00,,---,0.00,VWS V14.01,2016-02-06 15:05:00,
2016-02-06 09:11:00,30.2,18.7,29.41,NW,317,4.9,5.4,62,0.00,,---,0.00,VWS V14.01,2016-02-06 15:11:00,
2016-02-06 09:15:00,30.4,18.9,29.41,WNW,295,3.1,4.0,62,0.00,,---,0.00,VWS V14.01,2016-02-06 15:15:00,
2016-02-06 09:20:00,30.6,19.0,29.41,WNW,293,2.7,2.7,62,0.00,,---,0.00,VWS V14.01,2016-02-06 15:20:00,
2016-02-06 09:25:00,30.6,19.0,29.41,NNW,346,4.9,5.4,62,0.00,,---,0.00,VWS V14.01,2016-02-06 15:25:00,
2016-02-06 09:30:00,30.7,19.2,29.41,NW,325,2.7,4.0,62,0.00,,---,0.00,VWS V14.01,2016-02-06 15:30:00,
2016-02-06 09:35:00,30.9,19.4,29.41,NNW,331,3.6,4.0,62,0.00,,---,0.00,VWS V14.01,2016-02-06 15:35:00,
2016-02-06 09:40:00,31.3,19.7,29.41,NNW,330,8.3,8.3,62,0.00,,---,0.00,VWS V14.01,2016-02-06 15:40:00,
2016-02-06 09:45:00,31.3,19.7,29.41,NNW,327,4.5,4.5,62,0.00,,---,0.00,VWS V14.01,2016-02-06 15:45:00,
2016-02-06 09:50:00,31.1,19.5,29.41,NW,320,5.8,7.6,62,0.00,,---,0.00,VWS V14.01,2016-02-06 15:50:00,
2016-02-06 09:55:00,31.1,19.5,29.41,NNW,331,4.9,5.4,62,0.00,,---,0.00,VWS V14.01,2016-02-06 15:55:00,
2016-02-06 10:00:00,31.3,19.7,29.41,NNW,334,4.5,4.5,62,0.00,,---,0.00,VWS V14.01,2016-02-06 16:00:00,
2016-02-06 10:05:00,31.5,19.9,29.41,NNW,341,5.8,5.8,62,0.00,,---,0.00,VWS V14.01,2016-02-06 16:05:00,
2016-02-06 10:10:00,32.0,20.4,29.41,NNW,339,4.5,4.5,62,0.00,,---,0.00,VWS V14.01,2016-02-06 16:10:00,
2016-02-06 10:15:00,32.5,20.9,29.41,WNW,291,3.1,3.1,62,0.00,,---,0.00,VWS V14.01,2016-02-06 16:15:00,
2016-02-06 10:20:00,32.5,20.9,29.41,NNW,329,2.2,2.2,62,0.00,,---,0.00,VWS V14.01,2016-02-06 16:20:00,
2016-02-06 10:25:00,32.5,20.9,29.41,WNW,292,3.1,4.0,62,0.00,,---,0.00,VWS V14.01,2016-02-06 16:25:00,
2016-02-06 10:35:00,32.7,21.1,29.41,WNW,283,0.0,2.7,62,0.00,,---,0.00,VWS V14.01,2016-02-06 16:35:00,
2016-02-06 10:45:00,33.1,21.4,29.41,WNW,299,5.8,5.8,62,0.00,,---,0.00,VWS V14.01,2016-02-06 16:45:00,
2016-02-06 10:50:00,33.3,21.6,29.41,NW,325,5.4,5.4,62,0.00,,---,0.00,VWS V14.01,2016-02-06 16:50:00,
2016-02-06 11:00:00,33.1,21.4,29.41,NW,315,2.2,2.2,62,0.00,,---,0.00,VWS V14.01,2016-02-06 17:00:00,
2016-02-06 11:05:00,33.1,21.4,29.41,NNW,331,3.6,4.0,62,0.00,,---,0.00,VWS V14.01,2016-02-06 17:05:00,
2016-02-06 11:10:00,33.1,21.4,29.41,NNW,341,4.5,5.4,62,0.00,,---,0.00,VWS V14.01,2016-02-06 17:10:00,
2016-02-06 11:15:00,33.1,21.4,29.41,NW,314,4.0,4.0,62,0.00,,---,0.00,VWS V14.01,2016-02-06 17:15:00,
2016-02-06 11:20:00,33.6,21.9,29.41,NNW,337,2.7,4.0,62,0.00,,---,0.00,VWS V14.01,2016-02-06 17:20:00,
2016-02-06 11:25:00,34.3,22.0,29.41,WNW,291,2.2,4.9,60,0.00,,---,0.00,VWS V14.01,2016-02-06 17:25:00,
2016-02-06 11:30:00,34.3,22.0,29.38,NNW,335,6.3,6.3,60,0.00,,---,0.00,VWS V14.01,2016-02-06 17:30:00,
2016-02-06 11:35:00,34.3,22.0,29.38,NNW,328,6.3,6.3,60,0.00,,---,0.00,VWS V14.01,2016-02-06 17:35:00,
2016-02-06 11:45:00,34.5,22.2,29.38,NNW,327,5.4,7.6,60,0.00,,---,0.00,VWS V14.01,2016-02-06 17:45:00,
2016-02-06 11:50:00,34.0,21.6,29.38,WNW,288,2.7,5.4,60,0.00,,---,0.00,VWS V14.01,2016-02-06 17:50:00,
2016-02-06 11:55:00,34.0,21.6,29.38,NNW,333,4.0,6.3,60,0.00,,---,0.00,VWS V14.01,2016-02-06 17:55:00,
2016-02-06 12:00:00,34.0,21.6,29.38,NW,316,4.0,4.0,60,0.00,,---,0.00,VWS V14.01,2016-02-06 18:00:00,
2016-02-06 12:05:00,34.0,21.6,29.38,NW,314,4.0,6.3,60,0.00,,---,0.00,VWS V14.01,2016-02-06 18:05:00,
2016-02-06 12:10:00,34.0,21.6,29.38,NW,319,5.8,5.8,60,0.00,,---,0.00,VWS V14.01,2016-02-06 18:10:00,
2016-02-06 12:20:00,33.8,21.5,29.38,NW,325,4.0,4.0,60,0.00,,---,0.00,VWS V14.01,2016-02-06 18:20:00,
2016-02-06 12:25:00,33.8,21.5,29.38,NW,324,3.6,3.6,60,0.00,,---,0.00,VWS V14.01,2016-02-06 18:25:00,
2016-02-06 12:30:00,33.6,21.9,29.38,NW,322,5.8,6.3,62,0.00,,---,0.00,VWS V14.01,2016-02-06 18:30:00,
2016-02-06 12:35:00,33.4,21.8,29.38,NW,324,2.2,3.1,62,0.00,,---,0.00,VWS V14.01,2016-02-06 18:35:00,
2016-02-06 12:40:00,33.6,21.9,29.38,WNW,294,0.0,2.2,62,0.00,,---,0.00,VWS V14.01,2016-02-06 18:40:00,
2016-02-06 12:45:00,33.4,21.8,29.35,NW,325,5.8,5.8,62,0.00,,---,0.00,VWS V14.01,2016-02-06 18:45:00,
2016-02-06 12:50:00,33.6,21.9,29.35,NW,323,3.6,4.9,62,0.00,,---,0.00,VWS V14.01,2016-02-06 18:50:00,
2016-02-06 13:00:00,34.0,21.6,29.35,NW,325,4.0,4.9,60,0.00,,---,0.00,VWS V14.01,2016-02-06 19:00:00,
2016-02-06 13:05:00,34.0,21.6,29.35,NW,316,3.6,3.6,60,0.00,,---,0.00,VWS V14.01,2016-02-06 19:05:00,
2016-02-06 13:10:00,34.2,21.8,29.35,NNW,328,3.1,3.1,60,0.00,,---,0.00,VWS V14.01,2016-02-06 19:10:00,
2016-02-06 13:15:00,34.2,21.8,29.35,NW,304,2.2,2.7,60,0.00,,---,0.00,VWS V14.01,2016-02-06 19:15:00,
2016-02-06 13:20:00,34.0,21.6,29.35,West,273,2.2,2.7,60,0.00,,---,0.00,VWS V14.01,2016-02-06 19:20:00,
2016-02-06 13:25:00,34.0,21.6,29.35,NNW,338,3.6,6.3,60,0.00,,---,0.00,VWS V14.01,2016-02-06 19:25:00,
2016-02-06 13:30:00,34.2,21.8,29.35,NNW,327,2.7,5.8,60,0.00,,---,0.00,VWS V14.01,2016-02-06 19:30:00,
2016-02-06 13:35:00,34.3,22.0,29.35,NW,320,2.2,2.2,60,0.00,,---,0.00,VWS V14.01,2016-02-06 19:35:00,
2016-02-06 13:40:00,34.2,21.8,29.35,NNW,337,3.6,5.8,60,0.00,,---,0.00,VWS V14.01,2016-02-06 19:40:00,
2016-02-06 13:45:00,34.2,21.8,29.35,WNW,302,3.1,3.6,60,0.00,,---,0.00,VWS V14.01,2016-02-06 19:45:00,
2016-02-06 13:50:00,34.0,21.6,29.35,NW,310,2.7,2.7,60,0.00,,---,0.00,VWS V14.01,2016-02-06 19:50:00,
2016-02-06 13:55:00,34.2,21.8,29.35,NNW,340,3.6,3.6,60,0.00,,---,0.00,VWS V14.01,2016-02-06 19:55:00,
2016-02-06 14:00:00,34.2,21.8,29.35,NW,324,3.6,4.9,60,0.00,,---,0.00,VWS V14.01,2016-02-06 20:00:00,
2016-02-06 14:05:00,34.2,21.8,29.35,NNW,331,2.7,3.1,60,0.00,,---,0.00,VWS V14.01,2016-02-06 20:05:00,
2016-02-06 14:10:00,34.2,21.8,29.35,NNW,338,2.7,3.6,60,0.00,,---,0.00,VWS V14.01,2016-02-06 20:10:00,
2016-02-06 14:15:00,34.2,21.8,29.35,NNW,348,3.1,4.0,60,0.00,,---,0.00,VWS V14.01,2016-02-06 20:15:00,
2016-02-06 14:20:00,34.2,21.8,29.35,NW,326,2.7,2.7,60,0.00,,---,0.00,VWS V14.01,2016-02-06 20:20:00,
2016-02-06 14:25:00,34.5,22.2,29.35,WNW,301,4.0,4.0,60,0.00,,---,0.00,VWS V14.01,2016-02-06 20:25:00,
2016-02-06 14:30:00,34.3,22.0,29.35,NW,323,4.0,4.0,60,0.00,,---,0.00,VWS V14.01,2016-02-06 20:30:00,
2016-02-06 14:35:00,34.3,22.0,29.35,NNW,335,2.7,2.7,60,0.00,,---,0.00,VWS V14.01,2016-02-06 20:35:00,
2016-02-06 14:40:00,34.5,22.2,29.35,West,281,3.1,3.1,60,0.00,,---,0.00,VWS V14.01,2016-02-06 20:40:00,
2016-02-06 14:45:00,34.5,22.2,29.35,North,350,5.4,5.4,60,0.00,,---,0.00,VWS V14.01,2016-02-06 20:45:00,
2016-02-06 14:50:00,34.5,22.2,29.35,West,277,2.2,3.1,60,0.00,,---,0.00,VWS V14.01,2016-02-06 20:50:00,
2016-02-06 14:55:00,34.3,22.0,29.35,North,349,2.7,4.0,60,0.00,,---,0.00,VWS V14.01,2016-02-06 20:55:00,
2016-02-06 15:00:00,34.5,22.2,29.35,NW,307,4.9,4.9,60,0.00,,---,0.00,VWS V14.01,2016-02-06 21:00:00,
2016-02-06 15:05:00,34.3,22.0,29.35,NNW,348,3.1,3.1,60,0.00,,---,0.00,VWS V14.01,2016-02-06 21:05:00,
2016-02-06 15:10:00,34.2,21.8,29.35,NNW,341,2.2,7.6,60,0.00,,---,0.00,VWS V14.01,2016-02-06 21:10:00,
2016-02-06 15:15:00,34.0,21.6,29.35,NW,318,2.2,5.8,60,0.00,,---,0.00,VWS V14.01,2016-02-06 21:15:00,
2016-02-06 15:20:00,34.2,21.8,29.35,NW,315,4.0,5.4,60,0.00,,---,0.00,VWS V14.01,2016-02-06 21:20:00,
2016-02-06 15:25:00,34.5,22.2,29.35,NW,312,3.6,3.6,60,0.00,,---,0.00,VWS V14.01,2016-02-06 21:25:00,
2016-02-06 15:30:00,34.5,22.2,29.35,NNW,328,2.7,4.0,60,0.00,,---,0.00,VWS V14.01,2016-02-06 21:30:00,
2016-02-06 15:35:00,34.3,22.0,29.35,NW,326,0.0,2.7,60,0.00,,---,0.00,VWS V14.01,2016-02-06 21:35:00,
2016-02-06 15:40:00,34.0,21.6,29.35,NW,312,3.1,4.9,60,0.00,,---,0.00,VWS V14.01,2016-02-06 21:40:00,
2016-02-06 15:45:00,34.0,21.6,29.35,NW,304,4.0,4.0,60,0.00,,---,0.00,VWS V14.01,2016-02-06 21:45:00,
2016-02-06 15:50:00,33.8,21.5,29.35,NNW,340,5.8,5.8,60,0.00,,---,0.00,VWS V14.01,2016-02-06 21:50:00,
2016-02-06 15:55:00,34.0,21.6,29.35,NNW,333,4.9,4.9,60,0.00,,---,0.00,VWS V14.01,2016-02-06 21:55:00,
2016-02-06 16:00:00,34.2,21.8,29.35,NW,314,3.6,3.6,60,0.00,,---,0.00,VWS V14.01,2016-02-06 22:00:00,
2016-02-06 16:05:00,34.3,22.0,29.35,NNW,328,2.7,2.7,60,0.00,,---,0.00,VWS V14.01,2016-02-06 22:05:00,
2016-02-06 16:10:00,34.3,22.0,29.35,NW,313,5.4,5.4,60,0.00,,---,0.00,VWS V14.01,2016-02-06 22:10:00,
2016-02-06 16:15:00,33.8,21.5,29.35,NW,320,4.9,5.8,60,0.00,,---,0.00,VWS V14.01,2016-02-06 22:15:00,
2016-02-06 16:20:00,33.3,21.6,29.35,NW,326,4.0,4.0,62,0.00,,---,0.00,VWS V14.01,2016-02-06 22:20:00,
2016-02-06 16:30:00,32.7,21.1,29.35,NNW,332,5.8,5.8,62,0.00,,---,0.00,VWS V14.01,2016-02-06 22:30:00,
2016-02-06 16:35:00,32.4,20.7,29.35,NNW,328,0.0,2.2,62,0.00,,---,0.00,VWS V14.01,2016-02-06 22:35:00,
2016-02-06 16:40:00,32.2,20.6,29.35,NNW,328,4.9,4.9,62,0.00,,---,0.00,VWS V14.01,2016-02-06 22:40:00,
2016-02-06 16:45:00,31.8,20.2,29.32,NW,321,2.7,2.7,62,0.00,,---,0.00,VWS V14.01,2016-02-06 22:45:00,
2016-02-06 16:50:00,31.5,19.9,29.32,NNW,335,0.0,0.0,62,0.00,,---,0.00,VWS V14.01,2016-02-06 22:50:00,
2016-02-06 16:55:00,31.1,19.5,29.32,NW,324,2.7,2.7,62,0.00,,---,0.00,VWS V14.01,2016-02-06 22:55:00,
2016-02-06 17:00:00,30.9,19.4,29.32,NNW,336,0.0,0.0,62,0.00,,---,0.00,VWS V14.01,2016-02-06 23:00:00,
2016-02-06 17:15:00,30.0,18.5,29.32,NNW,336,0.0,0.0,62,0.00,,---,0.00,VWS V14.01,2016-02-06 23:15:00,
2016-02-06 17:20:00,29.7,18.2,29.32,NNW,336,0.0,0.0,62,0.00,,---,0.00,VWS V14.01,2016-02-06 23:20:00,
2016-02-06 17:25:00,29.5,18.0,29.32,NNW,336,0.0,0.0,62,0.00,,---,0.00,VWS V14.01,2016-02-06 23:25:00,
2016-02-06 17:30:00,29.1,17.7,29.32,NNW,336,0.0,0.0,62,0.00,,---,0.00,VWS V14.01,2016-02-06 23:30:00,
2016-02-06 17:35:00,28.8,17.3,29.32,NNW,336,0.0,0.0,62,0.00,,---,0.00,VWS V14.01,2016-02-06 23:35:00,
2016-02-06 17:40:00,28.4,17.0,29.32,NNW,336,0.0,0.0,62,0.00,,---,0.00,VWS V14.01,2016-02-06 23:40:00,
2016-02-06 17:45:00,28.0,16.6,29.32,NNW,336,0.0,0.0,62,0.00,,---,0.00,VWS V14.01,2016-02-06 23:45:00,
2016-02-06 18:00:00,27.7,16.3,29.32,NNW,336,0.0,0.0,62,0.00,,---,0.00,VWS V14.01,2016-02-07 00:00:00,
2016-02-06 18:05:00,27.5,16.1,29.32,NNW,336,0.0,0.0,62,0.00,,---,0.00,VWS V14.01,2016-02-07 00:05:00,
2016-02-06 18:10:00,27.5,17.9,29.32,NNW,336,0.0,0.0,67,0.00,,---,0.00,VWS V14.01,2016-02-07 00:10:00,
2016-02-06 18:15:00,27.3,17.7,29.32,NNW,336,0.0,0.0,67,0.00,,---,0.00,VWS V14.01,2016-02-07 00:15:00,
2016-02-06 18:20:00,27.1,17.5,29.32,NNW,336,0.0,0.0,67,0.00,,---,0.00,VWS V14.01,2016-02-07 00:20:00,
2016-02-06 18:30:00,27.0,17.3,29.32,NNW,336,0.0,0.0,67,0.00,,---,0.00,VWS V14.01,2016-02-07 00:30:00,
2016-02-06 18:35:00,26.8,17.2,29.32,NNW,336,0.0,0.0,67,0.00,,---,0.00,VWS V14.01,2016-02-07 00:35:00,
2016-02-06 18:40:00,26.6,17.0,29.32,NNW,336,0.0,0.0,67,0.00,,---,0.00,VWS V14.01,2016-02-07 00:40:00,
2016-02-06 18:45:00,26.4,16.8,29.32,NNW,336,0.0,0.0,67,0.00,,---,0.00,VWS V14.01,2016-02-07 00:45:00,
2016-02-06 18:50:00,26.4,16.8,29.32,NNW,336,0.0,0.0,67,0.00,,---,0.00,VWS V14.01,2016-02-07 00:50:00,
2016-02-06 18:55:00,26.2,16.6,29.32,NNW,336,0.0,0.0,67,0.00,,---,0.00,VWS V14.01,2016-02-07 00:55:00,
2016-02-06 19:00:00,26.1,16.5,29.32,NNW,336,0.0,0.0,67,0.00,,---,0.00,VWS V14.01,2016-02-07 01:00:00,
2016-02-06 19:05:00,26.1,16.5,29.32,NNW,336,0.0,0.0,67,0.00,,---,0.00,VWS V14.01,2016-02-07 01:05:00,
2016-02-06 19:10:00,26.1,16.5,29.32,NNW,336,0.0,0.0,67,0.00,,---,0.00,VWS V14.01,2016-02-07 01:10:00,
2016-02-06 19:15:00,25.9,16.3,29.29,NNW,336,0.0,0.0,67,0.00,,---,0.00,VWS V14.01,2016-02-07 01:15:00,
2016-02-06 19:20:00,25.9,17.9,29.29,NNW,336,0.0,0.0,71,0.00,,---,0.00,VWS V14.01,2016-02-07 01:20:00,
2016-02-06 19:25:00,25.7,17.7,29.29,NNW,336,0.0,0.0,71,0.00,,---,0.00,VWS V14.01,2016-02-07 01:25:00,
2016-02-06 19:30:00,25.5,17.6,29.29,NNW,336,0.0,0.0,71,0.00,,---,0.00,VWS V14.01,2016-02-07 01:30:00,
2016-02-06 19:45:00,25.3,17.4,29.29,NNW,336,0.0,0.0,71,0.00,,---,0.00,VWS V14.01,2016-02-07 01:45:00,
2016-02-06 19:50:00,25.3,17.4,29.29,NNW,336,0.0,0.0,71,0.00,,---,0.00,VWS V14.01,2016-02-07 01:50:00,
2016-02-06 19:55:00,25.9,17.9,29.29,NNW,336,0.0,0.0,71,0.00,,---,0.00,VWS V14.01,2016-02-07 01:55:00,
2016-02-06 20:00:00,26.1,18.1,29.29,NNW,336,0.0,0.0,71,0.00,,---,0.00,VWS V14.01,2016-02-07 02:00:00,
2016-02-06 20:05:00,26.4,19.5,29.29,NNW,336,0.0,0.0,75,0.00,,---,0.00,VWS V14.01,2016-02-07 02:05:00,
2016-02-06 20:10:00,26.6,19.6,29.29,NNW,336,0.0,0.0,75,0.00,,---,0.00,VWS V14.01,2016-02-07 02:10:00,
2016-02-06 20:15:00,26.6,19.6,29.29,NNW,336,0.0,0.0,75,0.00,,---,0.00,VWS V14.01,2016-02-07 02:15:00,
2016-02-06 20:20:00,26.8,19.8,29.29,NNW,336,0.0,0.0,75,0.00,,---,0.00,VWS V14.01,2016-02-07 02:20:00,
2016-02-06 20:25:00,26.8,19.8,29.29,NNW,336,0.0,0.0,75,0.00,,---,0.00,VWS V14.01,2016-02-07 02:25:00,
2016-02-06 20:30:00,27.0,20.0,29.26,NNW,336,0.0,0.0,75,0.00,,---,0.00,VWS V14.01,2016-02-07 02:30:00,
2016-02-06 20:35:00,27.3,20.3,29.26,NNW,336,0.0,0.0,75,0.00,,---,0.00,VWS V14.01,2016-02-07 02:35:00,
2016-02-06 20:40:00,27.5,20.5,29.26,NNW,336,0.0,0.0,75,0.00,,---,0.00,VWS V14.01,2016-02-07 02:40:00,
2016-02-06 20:45:00,27.3,20.3,29.26,NNW,336,0.0,0.0,75,0.00,,---,0.00,VWS V14.01,2016-02-07 02:45:00,